Home   Weather   Chiclayo   Past weeks
Flag for Peru

Past Weather in Chiclayo, Lambayeque, Peru — Yesterday and Last 2 Weeks

Now
72 °F

Sunny.


Feels Like: 75 °F
Forecast: N/A
Wind: 20 mph from South

Location: Chiclayo Airport

Current Time: Jul 23, 2019 at 3:56:04 pm

Latest Report: Jul 23, 2019 at 3:00 pm


Visibility: 10 mi

Pressure: 29.92 "Hg

Humidity: 69%

Dew Point: 61 °F

Location of ChiclayoLocation

Past Weather in Chiclayo — Graph

°F

Chiclayo Temperature Yesterday

Maximum temperature yesterday: 75 °F (at 2:00 pm)
Minimum temperature yesterday: 63 °F (at 12:00 am)
Average temperature yesterday: 66 °F

High & Low Weather Summary for the Past Weeks

 TemperatureHumidityPressure
High75 °F (Jul 15, 12:00 pm)94% (Jul 8, 8:00 pm)30.04 "Hg (Jul 8, 8:00 pm)
Low59 °F (Jul 20, 7:00 am)57% (Jul 15, 12:00 pm)29.80 "Hg (Jul 12, 4:00 pm)
Average66 °F81%29.93 "Hg
* Reported Jul 8 2:00 pm — Jul 23 2:00 pm, Chiclayo. Weather by CustomWeather, © 2019

Note: Actual official high and low records may vary slightly from our data, if they occured in-between our weather recording intervals... More about our weather records

Advertising

Chiclayo Weather History for the Previous 24 Hours

Scroll right to see more
 ConditionsComfort  
Time TempWeatherWind HumidityBarometerVisibility
2:00 pm
Tue, Jul 23
72 °FSunny.18 mph69%29.95 "Hg10 mi
1:00 pm73 °FSunny.16 mph65%29.98 "Hg10 mi
12:00 pm72 °FPassing clouds.13 mph69%29.98 "HgN/A
11:00 am70 °FPassing clouds.14 mph73%30.01 "HgN/A
10:00 am68 °FSunny.14 mph73%30.01 "Hg10 mi
9:00 am66 °FSunny.14 mph78%30.01 "Hg10 mi
8:00 am64 °FSunny.8 mph83%30.01 "Hg10 mi
7:00 am63 °FScattered clouds.12 mph88%29.98 "HgN/A
6:00 am63 °FPassing clouds.12 mph88%29.98 "HgN/A
5:00 am63 °FPassing clouds.12 mph88%29.95 "HgN/A
4:00 am63 °FPassing clouds.13 mph88%29.95 "HgN/A
3:00 am63 °FPassing clouds.14 mph88%29.95 "HgN/A
2:00 am63 °FPassing clouds.16 mph88%29.95 "HgN/A
1:00 am63 °FPassing clouds.16 mph88%29.98 "HgN/A
12:00 am63 °FPassing clouds.17 mph88%29.98 "HgN/A
11:00 pm
Mon, Jul 22
63 °FPassing clouds.15 mph88%29.98 "HgN/A
10:00 pm64 °FPassing clouds.13 mph83%29.98 "HgN/A
9:00 pm64 °FClear.14 mph83%29.95 "Hg10 mi
8:00 pm64 °FClear.17 mph83%29.95 "Hg10 mi
7:00 pm64 °FClear.18 mph83%29.92 "Hg10 mi
6:00 pm68 °FSunny.17 mph78%29.89 "Hg10 mi
5:00 pm70 °FSunny.18 mph73%29.89 "Hg10 mi
4:00 pm72 °FSunny.18 mph69%29.86 "Hg10 mi
3:00 pm72 °FPassing clouds.14 mph69%29.86 "HgN/A
Weather by CustomWeather, © 2019

See weather overview